| time (UTC) | temp C | wind direction | speed KPH | gust KPH | rain 1hr cm | rain 24hr cm | rain mn cm | humidity % | barometer mb |
| 20260504110536 | 2 | 0 | 0.0 | 0.0 | 0.00 | 0.00 | 0.00 | 94 | 1011.8 |
| 20260504100536 | 0 | 0 | 0.0 | 0.0 | 0.00 | 0.00 | 0.00 | 93 | 1011.6 |
| 20260504081547 | 1 | 0 | 0.0 | 0.0 | 0.00 | 0.00 | 0.00 | 92 | 1011.2 |
| 20260504081036 | 1 | 0 | 0.0 | 0.0 | 0.00 | 0.00 | 0.00 | 92 | 1011.3 |
| 20260504080538 | 1 | 0 | 0.0 | 0.0 | 0.00 | 0.00 | 0.00 | 92 | 1011.3 |
| 20260504050536 | 2 | 0 | 0.0 | 0.0 | 0.00 | 0.00 | 0.00 | 90 | 1010.8 |
| 20260504045544 | 2 | 0 | 0.0 | 0.0 | 0.00 | 0.00 | 0.00 | 90 | 1010.8 |
| 20260504045036 | 2 | 0 | 0.0 | 0.0 | 0.00 | 0.00 | 0.00 | 90 | 1010.9 |
| 20260504044555 | 2 | 0 | 0.0 | 0.0 | 0.00 | 0.00 | 0.00 | 90 | 1011.0 |
| 20260504044039 | 2 | 0 | 0.0 | 0.0 | 0.00 | 0.00 | 0.00 | 90 | 1011.1 |
| 20260504043541 | 2 | 0 | 0.0 | 0.0 | 0.00 | 0.00 | 0.00 | 90 | 1011.1 |
| 20260504043046 | 2 | 0 | 0.0 | 0.0 | 0.00 | 0.00 | 0.00 | 90 | 1011.1 |
| 20260504042538 | 2 | 0 | 0.0 | 0.0 | 0.00 | 0.00 | 0.00 | 90 | 1011.2 |
| 20260504042039 | 2 | 0 | 0.0 | 0.0 | 0.00 | 0.00 | 0.00 | 90 | 1011.2 |
| 20260504041546 | 2 | 0 | 0.0 | 0.0 | 0.00 | 0.00 | 0.00 | 90 | 1011.1 |
| 20260504041038 | 2 | 0 | 0.0 | 0.0 | 0.00 | 0.00 | 0.00 | 89 | 1011.1 |
| 20260504040538 | 2 | 0 | 0.0 | 0.0 | 0.00 | 0.00 | 0.00 | 89 | 1011.0 |
| 20260504040111 | 2 | 0 | 0.0 | 0.0 | 0.00 | 0.00 | 0.00 | 88 | 1011.1 |
| 20260504035540 | 2 | 0 | 0.0 | 0.0 | 0.00 | 0.00 | 0.00 | 88 | 1011.0 |
| 20260504035038 | 2 | 0 | 0.0 | 0.0 | 0.00 | 0.00 | 0.00 | 87 | 1011.0 |
| 20260504034544 | 2 | 0 | 0.0 | 0.0 | 0.00 | 0.00 | 0.00 | 87 | 1011.0 |
| 20260504034039 | 2 | 0 | 0.0 | 0.0 | 0.00 | 0.00 | 0.00 | 86 | 1011.0 |
| 20260504033541 | 2 | 0 | 0.0 | 0.0 | 0.00 | 0.00 | 0.00 | 87 | 1010.9 |
| 20260504033048 | 2 | 0 | 0.0 | 0.0 | 0.00 | 0.00 | 0.00 | 86 | 1010.9 |
| 20260504032541 | 2 | 0 | 0.0 | 0.0 | 0.00 | 0.00 | 0.00 | 85 | 1011.0 |
| 20260504032035 | 2 | 0 | 0.0 | 0.0 | 0.00 | 0.00 | 0.00 | 85 | 1011.0 |
| 20260504031555 | 2 | 0 | 0.0 | 0.0 | 0.00 | 0.00 | 0.00 | 85 | 1011.0 |
| 20260504031036 | 3 | 0 | 0.0 | 0.0 | 0.00 | 0.00 | 0.00 | 85 | 1010.8 |
| 20260504030536 | 3 | 0 | 0.0 | 0.0 | 0.00 | 0.00 | 0.00 | 85 | 1010.8 |
| 20260504030050 | 3 | 0 | 0.0 | 0.0 | 0.00 | 0.00 | 0.00 | 85 | 1010.7 |
| 20260504025537 | 3 | 0 | 0.0 | 0.0 | 0.00 | 0.00 | 0.00 | 84 | 1010.6 |
| 20260504025036 | 3 | 0 | 0.0 | 0.0 | 0.00 | 0.00 | 0.00 | 84 | 1010.6 |
| 20260504024546 | 3 | 0 | 0.0 | 0.0 | 0.00 | 0.00 | 0.00 | 83 | 1010.7 |
| 20260504024038 | 3 | 0 | 0.0 | 1.6 | 0.00 | 0.00 | 0.00 | 82 | 1010.7 |
| 20260504023538 | 3 | 0 | 0.0 | 1.6 | 0.00 | 0.00 | 0.00 | 81 | 1010.7 |
| 20260504023050 | 4 | 0 | 0.0 | 0.0 | 0.00 | 0.00 | 0.00 | 81 | 1010.7 |
| 20260504022539 | 4 | 0 | 0.0 | 0.0 | 0.00 | 0.00 | 0.00 | 81 | 1010.8 |
| 20260504022038 | 4 | 0 | 0.0 | 0.0 | 0.00 | 0.00 | 0.00 | 80 | 1010.7 |
| 20260504021545 | 4 | 0 | 0.0 | 0.0 | 0.00 | 0.00 | 0.00 | 80 | 1010.7 |
| 20260504021039 | 5 | 0 | 0.0 | 1.6 | 0.00 | 0.00 | 0.00 | 80 | 1010.7 |
| 20260504020539 | 5 | 0 | 0.0 | 1.6 | 0.00 | 0.00 | 0.00 | 79 | 1010.7 |
| 20260504020055 | 5 | 0 | 0.0 | 0.0 | 0.00 | 0.00 | 0.00 | 79 | 1010.7 |
| 20260504015538 | 5 | 0 | 0.0 | 0.0 | 0.00 | 0.00 | 0.00 | 79 | 1010.7 |
| 20260504015036 | 5 | 0 | 0.0 | 1.6 | 0.00 | 0.00 | 0.00 | 78 | 1010.7 |
| 20260504014542 | 5 | 0 | 0.0 | 3.2 | 0.00 | 0.00 | 0.00 | 77 | 1010.6 |
| 20260504014035 | 6 | 0 | 0.0 | 3.2 | 0.00 | 0.00 | 0.00 | 77 | 1010.6 |
| 20260504013538 | 6 | 0 | 0.0 | 3.2 | 0.00 | 0.00 | 0.00 | 76 | 1010.5 |
| 20260504013046 | 6 | 0 | 0.0 | 0.0 | 0.00 | 0.00 | 0.00 | 75 | 1010.5 |
| 20260504012536 | 6 | 0 | 0.0 | 0.0 | 0.00 | 0.00 | 0.00 | 74 | 1010.5 |
| 20260504012038 | 6 | 0 | 0.0 | 0.0 | 0.00 | 0.00 | 0.00 | 73 | 1010.5 |
| 20260504011549 | 6 | 0 | 0.0 | 0.0 | 0.00 | 0.00 | 0.00 | 72 | 1010.4 |
| 20260504011038 | 7 | 0 | 0.0 | 0.0 | 0.00 | 0.00 | 0.00 | 73 | 1010.4 |
| 20260504010535 | 7 | 0 | 0.0 | 1.6 | 0.00 | 0.00 | 0.00 | 72 | 1010.4 |
| 20260504010050 | 7 | 0 | 0.0 | 1.6 | 0.00 | 0.00 | 0.00 | 72 | 1010.2 |
| 20260504005538 | 7 | 0 | 0.0 | 1.6 | 0.00 | 0.00 | 0.00 | 71 | 1010.3 |
| 20260504005042 | 7 | 0 | 0.0 | 1.6 | 0.00 | 0.00 | 0.00 | 69 | 1010.2 |
| 20260504004545 | 7 | 0 | 0.0 | 1.6 | 0.00 | 0.00 | 0.00 | 69 | 1010.1 |
| 20260504004040 | 8 | 0 | 0.0 | 0.0 | 0.00 | 0.00 | 0.00 | 68 | 1010.1 |
| 20260504003541 | 8 | 0 | 0.0 | 0.0 | 0.00 | 0.00 | 0.00 | 67 | 1010.0 |
| 20260504003044 | 8 | 0 | 0.0 | 0.0 | 0.00 | 0.00 | 0.00 | 64 | 1010.0 |
| 20260504002536 | 9 | 0 | 0.0 | 0.0 | 0.00 | 0.00 | 0.00 | 64 | 1009.9 |
| 20260504002037 | 9 | 0 | 0.0 | 0.0 | 0.00 | 0.00 | 0.00 | 60 | 1009.8 |
| 20260504001553 | 10 | 0 | 0.0 | 0.0 | 0.00 | 0.00 | 0.00 | 58 | 1009.8 |
| 20260504001036 | 10 | 0 | 0.0 | 1.6 | 0.00 | 0.00 | 0.00 | 62 | 1009.7 |
| 20260504000535 | 10 | 0 | 0.0 | 4.8 | 0.00 | 0.00 | 0.00 | 59 | 1009.6 |
| 20260504000050 | 10 | 0 | 0.0 | 4.8 | 0.00 | 0.00 | 0.00 | 56 | 1009.6 |
| 20260503235539 | 10 | 0 | 0.0 | 4.8 | 0.00 | 0.00 | 0.00 | 49 | 1009.5 |
| 20260503235038 | 11 | 0 | 0.0 | 3.2 | 0.00 | 0.00 | 0.00 | 51 | 1009.4 |
| 20260503234612 | 11 | 0 | 0.0 | 6.4 | 0.00 | 0.00 | 0.00 | 52 | 1009.3 |
| 20260503234041 | 11 | 0 | 0.0 | 6.4 | 0.00 | 0.00 | 0.00 | 55 | 1009.3 |
| 20260503233541 | 11 | 0 | 1.6 | 6.4 | 0.00 | 0.00 | 0.00 | 49 | 1009.3 |
| 20260503233049 | 11 | 0 | 0.0 | 0.0 | 0.00 | 0.00 | 0.00 | 54 | 1009.3 |
| 20260503232535 | 11 | 0 | 0.0 | 1.6 | 0.00 | 0.00 | 0.00 | 48 | 1009.3 |
| 20260503232039 | 11 | 0 | 0.0 | 1.6 | 0.00 | 0.00 | 0.00 | 52 | 1009.2 |
| 20260503231552 | 11 | 0 | 0.0 | 0.0 | 0.00 | 0.00 | 0.00 | 54 | 1009.1 |
| 20260503231038 | 12 | 0 | 0.0 | 1.6 | 0.00 | 0.00 | 0.00 | 50 | 1009.1 |
| 20260503230542 | 12 | 0 | 0.0 | 3.2 | 0.00 | 0.00 | 0.00 | 47 | 1009.0 |
| 20260503230051 | 12 | 0 | 0.0 | 3.2 | 0.00 | 0.00 | 0.00 | 50 | 1009.0 |
| 20260503225539 | 12 | 0 | 0.0 | 1.6 | 0.00 | 0.00 | 0.00 | 49 | 1008.9 |
| 20260503225036 | 12 | 0 | 0.0 | 1.6 | 0.00 | 0.00 | 0.00 | 47 | 1008.9 |
| 20260503224548 | 12 | 0 | 0.0 | 1.6 | 0.00 | 0.00 | 0.00 | 45 | 1008.9 |
| 20260503224040 | 12 | 0 | 0.0 | 3.2 | 0.00 | 0.00 | 0.00 | 45 | 1008.9 |
| 20260503223539 | 12 | 0 | 0.0 | 4.8 | 0.00 | 0.00 | 0.00 | 42 | 1008.8 |
| 20260503223051 | 12 | 164 | 0.0 | 9.7 | 0.00 | 0.00 | 0.00 | 46 | 1008.8 |
| 20260503222543 | 13 | 53 | 1.6 | 12.9 | 0.00 | 0.00 | 0.00 | 38 | 1008.7 |
| 20260503222035 | 14 | 0 | 4.8 | 12.9 | 0.00 | 0.00 | 0.00 | 35 | 1008.7 |
| 20260503221557 | 14 | 53 | 1.6 | 9.7 | 0.00 | 0.00 | 0.00 | 35 | 1008.7 |
| 20260503221036 | 14 | 292 | 3.2 | 14.5 | 0.00 | 0.00 | 0.00 | 38 | 1008.7 |
| 20260503220539 | 14 | 0 | 6.4 | 14.5 | 0.00 | 0.00 | 0.00 | 34 | 1008.7 |
| 20260503220057 | 14 | 273 | 8.0 | 14.5 | 0.00 | 0.00 | 0.00 | 35 | 1008.8 |
| 20260503215539 | 15 | 279 | 3.2 | 8.0 | 0.00 | 0.00 | 0.00 | 35 | 1008.8 |
| 20260503215035 | 15 | 297 | 0.0 | 6.4 | 0.00 | 0.00 | 0.00 | 37 | 1008.7 |
| 20260503214547 | 14 | 247 | 1.6 | 16.1 | 0.00 | 0.00 | 0.00 | 39 | 1008.6 |
| 20260503214039 | 14 | 104 | 1.6 | 16.1 | 0.00 | 0.00 | 0.00 | 36 | 1008.7 |
| 20260503213539 | 15 | 294 | 6.4 | 14.5 | 0.00 | 0.00 | 0.00 | 34 | 1008.7 |
| 20260503213048 | 15 | 252 | 1.6 | 16.1 | 0.00 | 0.00 | 0.00 | 35 | 1008.8 |
| 20260503212539 | 15 | 347 | 1.6 | 16.1 | 0.00 | 0.00 | 0.00 | 33 | 1008.8 |
| 20260503212038 | 15 | 266 | 3.2 | 16.1 | 0.00 | 0.00 | 0.00 | 36 | 1008.7 |
| 20260503211544 | 14 | 288 | 1.6 | 14.5 | 0.00 | 0.00 | 0.00 | 36 | 1008.6 |
| 20260503211040 | 15 | 10 | 3.2 | 14.5 | 0.00 | 0.00 | 0.00 | 34 | 1008.7 |
| 20260503210539 | 15 | 266 | 4.8 | 11.3 | 0.00 | 0.00 | 0.00 | 35 | 1008.7 |
| 20260503210046 | 15 | 288 | 1.6 | 11.3 | 0.00 | 0.00 | 0.00 | 37 | 1008.6 |
| 20260503205541 | 15 | 266 | 1.6 | 11.3 | 0.00 | 0.00 | 0.00 | 39 | 1008.7 |
| 20260503205039 | 15 | 344 | 1.6 | 14.5 | 0.00 | 0.00 | 0.00 | 38 | 1008.7 |
| 20260503204547 | 15 | 267 | 4.8 | 14.5 | 0.00 | 0.00 | 0.00 | 43 | 1008.8 |
| 20260503204038 | 15 | 252 | 3.2 | 14.5 | 0.00 | 0.00 | 0.00 | 40 | 1008.8 |
| 20260503203536 | 14 | 0 | 1.6 | 9.7 | 0.00 | 0.00 | 0.00 | 43 | 1008.8 |
| 20260503203055 | 13 | 0 | 1.6 | 16.1 | 0.00 | 0.00 | 0.00 | 41 | 1008.8 |
| 20260503202538 | 13 | 76 | 1.6 | 17.7 | 0.00 | 0.00 | 0.00 | 42 | 1008.8 |
| 20260503202042 | 13 | 313 | 9.7 | 17.7 | 0.00 | 0.00 | 0.00 | 42 | 1008.9 |
| 20260503201551 | 13 | 296 | 3.2 | 9.7 | 0.00 | 0.00 | 0.00 | 40 | 1008.9 |
| 20260503201039 | 12 | 35 | 0.0 | 6.4 | 0.00 | 0.00 | 0.00 | 43 | 1008.9 |
| 20260503200539 | 12 | 59 | 1.6 | 6.4 | 0.00 | 0.00 | 0.00 | 39 | 1009.0 |
| 20260503200050 | 13 | 0 | 0.0 | 9.7 | 0.00 | 0.00 | 0.00 | 45 | 1009.1 |
| 20260503195543 | 13 | 286 | 3.2 | 11.3 | 0.00 | 0.00 | 0.00 | 42 | 1009.1 |
| 20260503195036 | 13 | 271 | 1.6 | 11.3 | 0.00 | 0.00 | 0.00 | 41 | 1009.2 |
| 20260503194556 | 13 | 302 | 1.6 | 12.9 | 0.00 | 0.00 | 0.00 | 39 | 1009.2 |
| 20260503194036 | 13 | 304 | 3.2 | 16.1 | 0.00 | 0.00 | 0.00 | 44 | 1009.2 |
| 20260503193538 | 13 | 284 | 6.4 | 19.3 | 0.00 | 0.00 | 0.00 | 44 | 1009.3 |
| 20260503193047 | 12 | 304 | 9.7 | 19.3 | 0.00 | 0.00 | 0.00 | 46 | 1009.3 |
| 20260503192536 | 12 | 300 | 1.6 | 9.7 | 0.00 | 0.00 | 0.00 | 43 | 1009.3 |
| 20260503192039 | 11 | 289 | 1.6 | 6.4 | 0.00 | 0.00 | 0.00 | 42 | 1009.4 |
| 20260503191552 | 11 | 252 | 1.6 | 11.3 | 0.00 | 0.00 | 0.00 | 42 | 1009.5 |
| 20260503191041 | 12 | 308 | 3.2 | 11.3 | 0.00 | 0.00 | 0.00 | 45 | 1009.6 |
| 20260503190538 | 12 | 330 | 4.8 | 11.3 | 0.00 | 0.00 | 0.00 | 43 | 1009.7 |
| 20260503190047 | 12 | 294 | 3.2 | 11.3 | 0.00 | 0.00 | 0.00 | 46 | 1009.7 |
| 20260503185539 | 12 | 49 | 3.2 | 11.3 | 0.00 | 0.00 | 0.00 | 45 | 1009.7 |
| 20260503185039 | 13 | 288 | 3.2 | 17.7 | 0.00 | 0.00 | 0.00 | 44 | 1009.8 |
| 20260503184546 | 12 | 63 | 4.8 | 19.3 | 0.00 | 0.00 | 0.00 | 42 | 1009.9 |
| 20260503184039 | 12 | 280 | 9.7 | 19.3 | 0.00 | 0.00 | 0.00 | 48 | 1009.9 |
| 20260503183537 | 12 | 10 | 1.6 | 14.5 | 0.00 | 0.00 | 0.00 | 43 | 1009.8 |
| 20260503183051 | 11 | 41 | 3.2 | 14.5 | 0.00 | 0.00 | 0.00 | 47 | 1010.0 |
| 20260503182536 | 11 | 241 | 1.6 | 8.0 | 0.00 | 0.00 | 0.00 | 50 | 1010.3 |
| 20260503182039 | 11 | 165 | 1.6 | 14.5 | 0.00 | 0.00 | 0.00 | 47 | 1010.1 |
| 20260503181544 | 10 | 309 | 3.2 | 14.5 | 0.00 | 0.00 | 0.00 | 49 | 1010.1 |
| 20260503181039 | 10 | 276 | 3.2 | 9.7 | 0.00 | 0.00 | 0.00 | 51 | 1010.1 |
| 20260503180536 | 10 | 173 | 1.6 | 9.7 | 0.00 | 0.00 | 0.00 | 48 | 1010.2 |
| 20260503180058 | 10 | 275 | 1.6 | 6.4 | 0.00 | 0.00 | 0.00 | 49 | 1010.1 |
| 20260503175536 | 10 | 270 | 1.6 | 14.5 | 0.00 | 0.00 | 0.00 | 49 | 1010.0 |
| 20260503175038 | 10 | 264 | 1.6 | 14.5 | 0.00 | 0.00 | 0.00 | 49 | 1010.1 |
| 20260503174557 | 10 | 315 | 1.6 | 12.9 | 0.00 | 0.00 | 0.00 | 47 | 1010.0 |
| 20260503174039 | 10 | 311 | 1.6 | 16.1 | 0.00 | 0.00 | 0.00 | 51 | 1010.0 |
| 20260503173536 | 10 | 286 | 3.2 | 16.1 | 0.00 | 0.00 | 0.00 | 45 | 1010.1 |
| 20260503173047 | 10 | 0 | 3.2 | 12.9 | 0.00 | 0.00 | 0.00 | 50 | 1010.1 |
| 20260503172540 | 10 | 302 | 3.2 | 12.9 | 0.00 | 0.00 | 0.00 | 52 | 1010.1 |
| 20260503172039 | 10 | 287 | 4.8 | 16.1 | 0.00 | 0.00 | 0.00 | 48 | 1010.1 |
| 20260503171550 | 10 | 277 | 9.7 | 16.1 | 0.00 | 0.00 | 0.00 | 49 | 1010.1 |
| 20260503171039 | 10 | 279 | 4.8 | 17.7 | 0.00 | 0.00 | 0.00 | 51 | 1010.0 |
| 20260503170539 | 10 | 306 | 4.8 | 17.7 | 0.00 | 0.00 | 0.00 | 46 | 1010.1 |
| 20260503150536 | 8 | 325 | 0.0 | 12.9 | 0.00 | 0.00 | 0.00 | 55 | 1010.2 |
| 20260503131038 | 7 | 279 | 1.6 | 11.3 | 0.00 | 0.25 | 0.00 | 68 | 1010.7 |
| 20260503130542 | 7 | 302 | 3.2 | 11.3 | 0.00 | 0.25 | 0.00 | 68 | 1010.8 |